Regional Weather Roundup
Issued by NWS

Home | Current Version | Previous Version | Text Only | Print | Product List | Glossary Off
Versions: 1 2 3 4 5 6 7 8 9 10 11 12 13 14 15 16 17 18 19 20 21 22 23 24 25 26 27 28 29 30 31 32 33 34 35 36 37 38 39 40 41 42 43 44 45 46 47 48 49 50

000
ASUS43 KOAX 250810
RWRNE

WEATHER ROUNDUP FOR NEBRASKA
NATIONAL WEATHER SERVICE OMAHA NE
300 AM CDT SAT APR 25 2015

NOTES: SATELLITE DATA IS BEING USED TO AUGMENT CLOUD COVER ABOVE
       12000 FEET.
       "FAIR" INDICATES FEW OR NO CLOUDS BELOW 12,000 FEET WITH NO
       SIGNIFICANT WEATHER AND/OR OBSTRUCTIONS TO VISIBILITY.

  * THESE STATIONS DO NOT REPORT WEATHER SUCH AS RAIN...SNOW OR FOG.

NEZ001>004-019>022-054>056-250900-
NEBRASKA PANHANDLE

CITY           SKY/WX    TMP DP  RH WIND       PRES   REMARKS
SCOTTSBLUFF    PTCLDY    44  40  85 NW8       29.65R
ALLIANCE       MOCLDY    42  39  89 N6        29.62S
CHADRON        MOCLDY    40  38  93 CALM      29.65R
KIMBALL        MOCLDY    46  37  71 NW9       29.65F
SIDNEY         MOCLDY    43  38  82 NW9       29.64S
$$

NEZ057>060-069>072-079>082-250900-
SOUTHWEST NEBRASKA

CITY           SKY/WX    TMP DP  RH WIND       PRES   REMARKS
IMPERIAL       MOCLDY    49  42  77 NW7       29.60S
LEXINGTON      CLOUDY    54  52  93 NE5       29.50F FOG
MCCOOK         CLOUDY    52  48  86 W10       29.54F
OGALLALA       PTCLDY    49  45  86 W5        29.61S
$$

NEZ005>010-023>029-035>040-094-250900-
NORTH CENTRAL NEBRASKA

CITY           SKY/WX    TMP DP  RH WIND       PRES   REMARKS
VALENTINE      CLOUDY    55  45  68 CALM      29.57S
AINSWORTH      CLOUDY    54  50  87 NE3       29.56R
BROKEN BOW     CLOUDY    52  46  80 N5        29.50F
O`NEILL        LGT RAIN  55  53  92 E16       29.54F
ORD            CLOUDY    55  51  86 N5        29.49F
THEDFORD       CLOUDY    53  49  89 CALM      29.56F
$$

NEZ041-046>049-061>064-073>077-083>087-250900-
SOUTH CENTRAL NEBRASKA

CITY           SKY/WX    TMP DP  RH WIND       PRES   REMARKS
GRAND ISLAND   CLOUDY    55  54  96 E8        29.49S FOG
AURORA         LGT RAIN  55  55 100 NE10      29.48S
HASTINGS       LGT RAIN  55  55 100 W7        29.48S
HEBRON         RAIN      55  54  94 NW14G20   29.42F
HOLDREGE       CLOUDY    55  53  95 CALM      29.49F FOG
KEARNEY *      CLOUDY    55  52  88 NW10      29.50F
YORK           LGT RAIN  54  54 100 E10       29.46F
$$

NEZ011>018-030>034-042>045-250900-
NORTHEAST NEBRASKA

CITY           SKY/WX    TMP DP  RH WIND       PRES   REMARKS
NORFOLK        CLOUDY    54  53  97 NE12      29.51S FOG
ALBION         CLOUDY    56  51  85 NE6       29.51S
BLAIR          LGT RAIN  53  51  94 NE10      29.47F
COLUMBUS *     CLOUDY    54  48  82 NE13      29.49F
FREMONT        RAIN      55  54  95 NE10G16   29.48F
TEKAMAH        CLOUDY    54  50  86 NE8       29.51F
WAYNE          LGT RAIN  52  51  96 NE14      29.54F
$$

NEZ050>053-065>068-078-088>093-250900-
SOUTHEAST NEBRASKA

CITY           SKY/WX    TMP DP  RH WIND       PRES   REMARKS
LINCOLN        LGT RAIN  55  53  93 NE12      29.43S FOG
OMAHA EPPLEY   TSTM      56  53  90 E16       29.47F
BEATRICE       CLOUDY    56  55  96 NE10      29.39F
FALLS CITY     LGT RAIN  57  57 100 E15       29.38F
NEBRASKA CITY  LGT RAIN  56  56  97 NE10      29.40F
PLATTSMOUTH    CLOUDY    55  53  94 NE15      29.43F THUNDER
$$

NEZ044-045-051>053-067-250900-
OMAHA AREA

CITY           SKY/WX    TMP DP  RH WIND       PRES   REMARKS
OMAHA EPPLEY   TSTM      56  53  90 E16       29.47F
BLAIR          LGT RAIN  53  51  94 NE10      29.47F
FREMONT        RAIN      55  54  95 NE10G16   29.48F
MILLARD        TSTM      57  55  92 E8        29.45F
OFFUTT AFB     RAIN      55  54  94 NE10      29.44F FOG
PLATTSMOUTH    CLOUDY    55  53  94 NE15      29.43F THUNDER
WAHOO          LGT RAIN  56  53  89 NE14      29.45F
$$


USA.gov is the U.S. government's official web portal to all federal, state and local government web resources and services.